Weather History for Holloman AFB, NM

Change the Weather History Date:

Friday, July 12, 2013

  Actual Average Record
Temperature  
Mean Temperature 82 °F -  
Max Temperature 95 °F 92 °F 105 °F (1998)
Min Temperature 69 °F 66 °F 60 °F (1999)
Cooling Degree Days 17    
Growing Degree Days 32 (Base 50)    
Moisture  
Dew Point 52 °F    
Average Humidity 34    
Maximum Humidity 56    
Minimum Humidity 22    
Precipitation  
Precipitation 0.00 in - - ()
Sea Level Pressure  
Sea Level Pressure 29.84 in    
Wind  
Wind Speed 7 mph (ENE)    
Max Wind Speed 17 mph    
Max Gust Speed 24 mph    
Visibility 10 miles    
Events Thunderstorm    
Averages and records for this station are not official NWS values.
T = Trace of Precipitation, MM = Missing Value Source: NWS Daily Summary

Daily Weather History Graph

Daily Weather History Graph

Search for Another Location

Airport:

Trip Planner

Search our weather history database for the weather conditions in past years. The results will help you decide how hot, cold, wet, or windy it might be!

Date:

Astronomy

Jul. 12, 2013 Rise Set
Actual Time 6:05 AM MDT 8:14 PM MDT
Civil Twilight 5:37 AM MDT 8:42 PM MDT
Nautical Twilight 5:03 AM MDT 9:16 PM MDT
Astronomical Twilight 4:26 AM MDT 9:53 PM MDT
Moon 10:08 AM MDT (7/12) 10:44 PM MDT (7/12)
Length of Visible Light 15h 05m
Length of Day
14h 09m
Waxing Crescent, 18% of the Moon is Illuminated
Jul 12
Waxing Crescent
Jul 15
First Quarter
Jul 22
Full
Jul 29
Last Quarter
Aug 6
New

Hourly Weather History & Observations

Time (MDT) Temp. Heat Index Dew Point Humidity Pressure Visibility Wind Dir Wind Speed Gust Speed Precip Events Conditions
12:58 AM 77.5 °F - 55.2 °F 46% 29.80 in 10.0 mi SSE 4.6 mph - N/A   Clear
1:58 AM 76.3 °F - 56.3 °F 50% 29.79 in 10.0 mi South 8.1 mph - N/A   Clear
2:58 AM 73.0 °F - 54.1 °F 51% 29.80 in 10.0 mi WSW 8.1 mph - N/A   Clear
3:58 AM 73.0 °F - 52.7 °F 49% 29.80 in 10.0 mi ENE 1.2 mph - N/A   Clear
4:58 AM 69.4 °F - 53.1 °F 56% 29.83 in 10.0 mi NNW 6.9 mph - N/A   Clear
5:58 AM 69.8 °F - 53.2 °F 56% 29.84 in 10.0 mi North 5.8 mph - N/A   Mostly Cloudy
6:58 AM 72.7 °F - 52.7 °F 49% 29.85 in 10.0 mi SE 5.8 mph - N/A   Clear
7:58 AM 79.2 °F - 53.6 °F 41% 29.86 in 10.0 mi ENE 3.5 mph - N/A   Clear
8:58 AM 84.7 °F - 52.3 °F 33% 29.86 in 10.0 mi WSW 4.6 mph - N/A   Clear
9:58 AM 85.8 °F 84.0 °F 53.2 °F 33% 29.86 in 10.0 mi WNW 4.6 mph - N/A   Clear
10:58 AM 86.7 °F - 52.7 °F 31% 29.84 in 10.0 mi NNW 6.9 mph - N/A   Clear
11:58 AM 90.7 °F - 52.3 °F 27% 29.82 in 10.0 mi Variable 3.5 mph - N/A   Clear
12:58 PM 93.2 °F - 51.3 °F 24% 29.80 in 10.0 mi West 4.6 mph - N/A   Partly Cloudy
1:58 PM 93.4 °F - 50.9 °F 23% 29.78 in 10.0 mi NE 10.4 mph - N/A Thunderstorm Scattered Clouds
2:34 PM 93.2 °F - 51.8 °F 24% 29.99 in 10.0 mi ENE 15.0 mph 20.7 mph N/A   Scattered Clouds
2:58 PM 95.0 °F - 52.3 °F 24% 29.76 in 10.0 mi NE 17.3 mph 23.0 mph N/A   Partly Cloudy
3:03 PM 95.0 °F - 51.8 °F 23% 29.98 in 10.0 mi NNE 17.3 mph 24.2 mph N/A   Partly Cloudy
3:24 PM 95.0 °F - 50.0 °F 22% 29.97 in 10.0 mi NNE 12.7 mph 21.9 mph N/A   Clear
3:58 PM 95.5 °F - 50.4 °F 22% 29.73 in 10.0 mi NE 13.8 mph 21.9 mph N/A   Clear
4:58 PM 94.6 °F - 50.0 °F 22% 29.73 in 10.0 mi NNE 11.5 mph 17.3 mph N/A   Clear
5:58 PM 93.2 °F - 49.6 °F 23% 29.72 in 10.0 mi South 4.6 mph - N/A   Clear
6:58 PM 93.6 °F - 50.2 °F 23% 29.72 in 10.0 mi SE 5.8 mph - N/A   Partly Cloudy
7:58 PM 87.8 °F 85.5 °F 53.1 °F 30% 29.73 in 3.0 mi SW 10.4 mph - N/A   Haze
9:55 PM 86.0 °F - 51.8 °F 31% 30.00 in 10.0 mi SSW 2.3 mph - N/A   Mostly Cloudy
10:55 PM 84.2 °F - 51.8 °F 33% 30.01 in 10.0 mi South 5.8 mph - N/A   Clear
11:55 PM 78.8 °F - 55.4 °F 44% 30.04 in 10.0 mi SSE 4.6 mph - N/A   Clear